Location: Street
(51.1247°N, 2.7429°W)
Time: 10:17:28
(UTC+00:00)

Tiros 1 - Pass Details

Date: 28 November 2020
Orbit: 630 x 663 km, 48.4° (Epoch: 21 January)

Event Time Altitude Azimuth Distance (km) Brightness Sun altitude
Rises 16:24:49 0° 232° (SW) 2,987 13.3 -2.9°
Reaches altitude 10° 16:27:17 10° 224° (SW) 2,075 11.4 -3.3°
Maximum altitude 16:31:43 39° 157° (SSE) 992 8.2 -3.9°
Drops below altitude 10° 16:36:09 10° 89° (E) 2,069 9.2 -4.5°
Enters shadow 16:37:42 - 84° (E) 2,641 9.7 -4.7°
Sets 16:38:36 0° 82° (E) 2,978 - -4.8°
